Weather History for Socorro, NM

Change the Weather History Date:

Thursday, July 18, 2013

  Actual Average Record
Temperature  
Mean Temperature 73 °F -  
Max Temperature 83 °F 93 °F 96 °F (2012)
Min Temperature 63 °F 60 °F 62 °F (2011)
Cooling Degree Days 8    
Growing Degree Days 23 (Base 50)    
Moisture  
Dew Point 54 °F    
Average Humidity 52    
Maximum Humidity 75    
Minimum Humidity 31    
Precipitation  
Precipitation 0.00 in - - ()
Sea Level Pressure  
Sea Level Pressure 30.24 in    
Wind  
Wind Speed 3 mph (SSE)    
Max Wind Speed 13 mph    
Max Gust Speed 18 mph    
Visibility 10 miles    
Events      
Averages and records for this station are not official NWS values.
T = Trace of Precipitation, MM = Missing Value Source: NWS Daily Summary

Daily Weather History Graph

Daily Weather History Graph

Search for Another Location

Airport:

Trip Planner

Search our weather history database for the weather conditions in past years. The results will help you decide how hot, cold, wet, or windy it might be!

Date:

Astronomy

Jul. 18, 2013 Rise Set
Actual Time 6:09 AM MDT 8:17 PM MDT
Civil Twilight 5:41 AM MDT 8:46 PM MDT
Nautical Twilight 5:06 AM MDT 9:20 PM MDT
Astronomical Twilight 4:29 AM MDT 9:57 PM MDT
Moon 4:19 PM MDT (7/18) 1:59 AM MDT (7/18)
Length of Visible Light 15h 04m
Length of Day
14h 08m
Waxing Gibbous, 78% of the Moon is Illuminated
Jul 18
Waxing Gibbous
Jul 22
Full
Jul 29
Last Quarter
Aug 6
New
Aug 14
First Quarter

Hourly Weather History & Observations

Time (MDT) Temp. Heat Index Dew Point Humidity Pressure Visibility Wind Dir Wind Speed Gust Speed Precip Events Conditions
12:15 AM 69.8 °F - 53.4 °F 56% 30.31 in 10.0 mi Calm Calm - N/A   Clear
12:35 AM 68.9 °F - 53.6 °F 58% 30.31 in 10.0 mi East 3.5 mph - N/A   Clear
12:55 AM 68.9 °F - 53.1 °F 57% 30.31 in 10.0 mi ESE 3.5 mph - N/A   Clear
1:15 AM 68.0 °F - 53.2 °F 59% 30.31 in 10.0 mi Calm Calm - N/A   Scattered Clouds
1:35 AM 67.3 °F - 53.6 °F 61% 30.29 in 10.0 mi SSW 3.5 mph - N/A   Scattered Clouds
1:55 AM 66.6 °F - 54.1 °F 64% 30.29 in 10.0 mi Calm Calm - N/A   Mostly Cloudy
2:15 AM 67.1 °F - 54.0 °F 63% 30.29 in 10.0 mi Calm Calm - N/A   Mostly Cloudy
2:35 AM 66.4 °F - 53.6 °F 63% 30.29 in 10.0 mi Calm Calm - N/A   Clear
2:55 AM 66.4 °F - 53.6 °F 63% 30.28 in 10.0 mi Calm Calm - N/A   Clear
3:15 AM 66.2 °F - 53.8 °F 64% 30.28 in 10.0 mi ENE 3.5 mph - N/A   Mostly Cloudy
3:35 AM 66.9 °F - 54.0 °F 63% 30.28 in 10.0 mi Calm Calm - N/A   Overcast
3:55 AM 66.2 °F - 54.0 °F 65% 30.27 in 10.0 mi Calm Calm - N/A   Mostly Cloudy
4:15 AM 65.7 °F - 54.0 °F 66% 30.28 in 10.0 mi East 3.5 mph - N/A   Scattered Clouds
4:35 AM 65.7 °F - 54.0 °F 66% 30.28 in 10.0 mi East 4.6 mph - N/A   Clear
4:55 AM 64.6 °F - 54.1 °F 69% 30.28 in 10.0 mi Calm Calm - N/A   Scattered Clouds
5:15 AM 64.0 °F - 54.5 °F 71% 30.28 in 10.0 mi Calm Calm - N/A   Scattered Clouds
5:35 AM 63.7 °F - 54.5 °F 72% 30.28 in 10.0 mi Calm Calm - N/A   Clear
5:55 AM 64.0 °F - 54.5 °F 71% 30.29 in 10.0 mi Calm Calm - N/A   Clear
6:15 AM 63.0 °F - 54.9 °F 75% 30.29 in 10.0 mi Calm Calm - N/A   Scattered Clouds
6:35 AM 63.9 °F - 55.8 °F 75% 30.29 in 10.0 mi Calm Calm - N/A   Mostly Cloudy
6:55 AM 65.1 °F - 55.4 °F 71% 30.29 in 10.0 mi Calm Calm - N/A   Overcast
7:15 AM 66.4 °F - 55.0 °F 67% 30.29 in 10.0 mi Calm Calm - N/A   Overcast
7:35 AM 67.8 °F - 55.2 °F 64% 30.29 in 10.0 mi North 5.8 mph - N/A   Mostly Cloudy
7:55 AM 68.4 °F - 55.4 °F 63% 30.29 in 10.0 mi North 6.9 mph - N/A   Mostly Cloudy
8:15 AM 68.7 °F - 55.4 °F 62% 30.30 in 10.0 mi NNW 5.8 mph - N/A   Scattered Clouds
8:35 AM 69.4 °F - 55.0 °F 60% 30.30 in 10.0 mi NNW 8.1 mph - N/A   Clear
8:55 AM 70.2 °F - 54.7 °F 58% 30.30 in 10.0 mi North 4.6 mph - N/A   Scattered Clouds
9:15 AM 70.7 °F - 54.1 °F 56% 30.30 in 10.0 mi Calm Calm - N/A   Overcast
9:35 AM 71.1 °F - 54.0 °F 55% 30.30 in 10.0 mi Calm Calm - N/A   Overcast
9:55 AM 72.9 °F - 53.4 °F 50% 30.29 in 10.0 mi Calm Calm - N/A   Mostly Cloudy
10:15 AM 73.0 °F - 53.6 °F 50% 30.28 in 10.0 mi Calm Calm - N/A   Scattered Clouds
10:35 AM 73.6 °F - 53.6 °F 50% 30.28 in 10.0 mi Calm Calm - N/A   Scattered Clouds
10:55 AM 74.3 °F - 53.8 °F 49% 30.28 in 10.0 mi Calm Calm - N/A   Overcast
11:15 AM 74.5 °F - 54.1 °F 49% 30.28 in 10.0 mi Calm Calm - N/A   Mostly Cloudy
11:35 AM 75.4 °F - 54.1 °F 48% 30.27 in 10.0 mi Calm Calm - N/A   Overcast
11:55 AM 76.8 °F - 54.1 °F 45% 30.27 in 10.0 mi South 4.6 mph - N/A   Scattered Clouds
12:15 PM 77.0 °F - 53.8 °F 44% 30.26 in 10.0 mi South 5.8 mph - N/A   Mostly Cloudy
12:35 PM 77.2 °F - 54.0 °F 44% 30.26 in 10.0 mi SSE 5.8 mph - N/A   Overcast
12:55 PM 80.2 °F 80.1 °F 53.6 °F 40% 30.25 in 10.0 mi SSE 5.8 mph - N/A   Scattered Clouds
1:15 PM 81.3 °F - 52.9 °F 37% 30.24 in 10.0 mi South 6.9 mph - N/A   Scattered Clouds
1:35 PM 80.1 °F - 52.0 °F 38% 30.23 in 10.0 mi East 3.5 mph - N/A   Scattered Clouds
1:55 PM 81.0 °F - 52.0 °F 36% 30.23 in 10.0 mi SSE 9.2 mph - N/A   Mostly Cloudy
2:15 PM 80.4 °F - 52.0 °F 37% 30.22 in 10.0 mi SSE 4.6 mph - N/A   Overcast
2:35 PM 81.9 °F - 50.0 °F 33% 30.22 in 10.0 mi East 8.1 mph 18.4 mph N/A   Mostly Cloudy
2:55 PM 83.5 °F - 50.7 °F 32% 30.20 in 10.0 mi South 5.8 mph 16.1 mph N/A   Mostly Cloudy
3:15 PM 82.4 °F - 50.0 °F 32% 30.20 in 10.0 mi South 10.4 mph - N/A   Scattered Clouds
4:15 PM 83.3 °F - 50.0 °F 31% 30.17 in 10.0 mi SE 12.7 mph 17.3 mph N/A   Mostly Cloudy
4:35 PM 81.0 °F - 51.1 °F 35% 30.17 in 10.0 mi SE 12.7 mph 17.3 mph N/A   Overcast
4:55 PM 80.2 °F - 51.4 °F 37% 30.16 in 10.0 mi SSE 12.7 mph - N/A   Overcast
5:15 PM 80.8 °F - 52.0 °F 37% 30.16 in 10.0 mi South 10.4 mph - N/A   Overcast
5:35 PM 81.1 °F - 51.3 °F 35% 30.15 in 10.0 mi South 10.4 mph - N/A   Scattered Clouds
5:55 PM 81.0 °F - 51.4 °F 36% 30.15 in 10.0 mi SSE 9.2 mph - N/A   Clear
6:15 PM 81.3 °F - 51.8 °F 36% 30.15 in 10.0 mi South 8.1 mph - N/A   Scattered Clouds
6:35 PM 82.0 °F - 51.1 °F 34% 30.15 in 10.0 mi SSE 9.2 mph - N/A   Clear
6:55 PM 79.9 °F - 53.2 °F 40% 30.15 in 10.0 mi South 10.4 mph - N/A   Clear
7:15 PM 79.7 °F - 53.2 °F 40% 30.15 in 10.0 mi South 9.2 mph - N/A   Scattered Clouds
7:35 PM 79.9 °F - 52.9 °F 39% 30.16 in 10.0 mi South 9.2 mph - N/A   Mostly Cloudy
7:55 PM 78.8 °F - 52.7 °F 40% 30.16 in 10.0 mi South 10.4 mph - N/A   Overcast
8:15 PM 78.4 °F - 52.9 °F 41% 30.16 in 10.0 mi South 8.1 mph - N/A   Overcast
8:35 PM 77.9 °F - 52.9 °F 42% 30.16 in 10.0 mi South 8.1 mph - N/A   Overcast
8:55 PM 77.0 °F - 53.4 °F 44% 30.16 in 10.0 mi SSW 8.1 mph - N/A   Scattered Clouds
9:15 PM 76.3 °F - 54.0 °F 46% 30.16 in 10.0 mi SW 4.6 mph - N/A   Mostly Cloudy
9:35 PM 75.7 °F - 54.1 °F 47% 30.17 in 10.0 mi SW 5.8 mph - N/A   Mostly Cloudy
9:55 PM 74.5 °F - 54.7 °F 50% 30.17 in 10.0 mi SSE 4.6 mph - N/A   Clear
10:15 PM 72.0 °F - 56.8 °F 59% 30.19 in 10.0 mi SE 5.8 mph - N/A   Clear
10:35 PM 70.3 °F - 58.1 °F 65% 30.19 in 10.0 mi SE 5.8 mph - N/A   Clear
10:55 PM 69.3 °F - 58.1 °F 68% 30.19 in 10.0 mi SE 6.9 mph - N/A   Clear
11:15 PM 69.1 °F - 58.1 °F 68% 30.20 in 10.0 mi South 5.8 mph - N/A   Clear
11:35 PM 69.8 °F - 57.6 °F 65% 30.20 in 10.0 mi SE 9.2 mph - N/A   Clear
11:55 PM 69.4 °F - 57.7 °F 66% 30.21 in 10.0 mi SSE 9.2 mph - N/A   Clear